AULENDORF Weather Reports


time (UTC)temp
F
wind
direction
speed
knots
gust
knots
rain 1hr
in
rain 24hr
in
rain mn
in
humidity
%
barometer
mb
20260504160210 71 290 3.5 0.0 0.00 0.00 0.00 42 1009.2
20260504150210 72 360 5.2 0.0 0.00 0.00 0.00 42 1009.1
20260504140209 72 122 2.6 0.0 0.00 0.00 0.00 40 1009.4
20260504130215 72 36 3.5 0.0 0.00 0.00 0.00 41 1010.0
20260504120210 70 342 6.1 0.0 0.00 0.00 0.00 44 1010.5
20260504110210 70 24 4.3 0.0 0.00 0.00 0.00 44 1011.0
20260504100212 68 30 5.2 0.0 0.00 0.00 0.00 45 1011.5
20260504080210 67 346 4.3 0.0 0.00 0.00 0.00 52 1012.5
20260504070211 60 36 1.7 0.0 0.00 0.00 0.00 65 1012.6
20260504060212 53 32 1.7 0.0 0.00 0.00 0.00 75 1012.7
20260504050210 48 32 0.0 0.0 0.00 0.00 0.00 83 1012.9
20260504043211 47 32 0.0 0.0 0.00 0.00 0.00 82 1012.8
20260504040211 48 32 1.7 0.0 0.00 0.00 0.00 81 1012.7
20260504033211 49 275 0.9 0.0 0.00 0.00 0.00 79 1013.1
20260504030212 50 275 1.7 0.0 0.00 0.00 0.00 77 1013.1
20260504023211 52 265 4.3 0.0 0.00 0.00 0.00 74 1013.2
20260504020212 53 271 0.0 0.0 0.00 0.00 0.00 72 1012.9
20260504013211 53 0 0.0 0.0 0.00 0.00 0.00 72 1012.9
20260504010211 53 271 0.0 0.0 0.00 0.00 0.00 71 1013.2
20260504003210 53 271 0.0 0.0 0.00 0.00 0.00 69 1013.4
20260504000208 53 271 0.0 0.0 0.00 0.00 0.00 68 1013.5
20260503233209 54 271 0.0 0.0 0.00 0.00 0.00 65 1013.7
20260503230209 55 271 2.6 0.0 0.00 0.00 0.00 63 1013.8
20260503223210 55 258 1.7 0.0 0.00 0.00 0.00 62 1013.9
20260503220212 56 252 1.7 0.0 0.00 0.00 0.00 60 1013.5
20260503213210 56 217 0.0 0.0 0.00 0.00 0.00 58 1013.4
20260503210211 58 217 0.9 0.0 0.00 0.00 0.00 55 1013.2
20260503203209 60 217 1.7 0.0 0.00 0.00 0.00 51 1012.9
20260503200211 62 326 6.1 0.0 0.00 0.00 0.00 46 1012.2
20260503193210 63 307 10.4 0.0 0.00 0.00 0.00 43 1011.9
20260503190210 65 275 7.0 0.0 0.00 0.00 0.00 43 1012.0
20260503183209 68 267 3.5 0.0 0.00 0.00 0.00 47 1011.0
20260503180210 70 321 5.2 0.0 0.00 0.00 0.00 45 1010.6
20260503173209 71 300 6.1 0.0 0.00 0.00 0.00 41 1010.4
20260503170211 72 189 1.7 0.0 0.00 0.00 0.00 39 1010.4